Location: Casteau
(50.5142°N, 4.0161°E)
Time: 06:05:44
(UTC+00:00)

SL-08 RB Rocket - Pass Details

Date: 18 September 2020
Orbit: 646 x 685 km, 97.8° (Epoch: 22 October)

Event Time Altitude Azimuth Distance (km) Brightness Sun altitude
Exits shadow 19:32:45 - 178° (S) 2,787 6.7 -16.6°
Reaches altitude 10° 19:34:27 10° 182° (S) 2,103 6.1 -16.9°
Maximum altitude 19:38:58 54° 260° (W) 819 4.4 -17.5°
Drops below altitude 10° 19:43:27 10° 338° (NNW) 2,095 6.9 -18.2°
Sets 19:45:43 0° 343° (NNW) 3,007 7.7 -18.5°
